| time (UTC) | temp C | wind direction | speed KPH | gust KPH | rain 1hr cm | rain 24hr cm | rain mn cm | humidity % | barometer mb |
| 20260503193112 | 17 | 229 | 6.4 | 14.5 | 0.00 | 0.00 | 0.00 | 68 | 1010.2 |
| 20260503191605 | 17 | 202 | 6.4 | 19.3 | 0.00 | 0.00 | 0.00 | 68 | 1010.2 |
| 20260503190054 | 18 | 251 | 3.2 | 24.1 | 0.00 | 0.00 | 0.00 | 69 | 1010.6 |
| 20260503184548 | 17 | 141 | 4.8 | 14.5 | 0.00 | 0.00 | 0.00 | 69 | 1010.8 |
| 20260503183106 | 17 | 347 | 4.8 | 19.3 | 0.00 | 0.00 | 0.00 | 69 | 1011.0 |
| 20260503181558 | 17 | 226 | 9.7 | 24.1 | 0.00 | 0.00 | 0.00 | 69 | 1011.2 |
| 20260503180041 | 16 | 319 | 3.2 | 12.9 | 0.00 | 0.00 | 0.00 | 69 | 1011.5 |
| 20260503174536 | 17 | 233 | 3.2 | 12.9 | 0.00 | 0.00 | 0.00 | 69 | 1011.6 |
| 20260503173034 | 17 | 269 | 4.8 | 20.9 | 0.00 | 0.00 | 0.00 | 69 | 1011.8 |
| 20260503171530 | 16 | 238 | 3.2 | 17.7 | 0.00 | 0.00 | 0.00 | 69 | 1012.1 |
| 20260503081507 | 2 | 259 | 0.0 | 0.0 | 0.00 | 0.00 | 0.00 | 68 | 1015.4 |
| 20260503071606 | 2 | 193 | 0.0 | 0.0 | 0.00 | 0.00 | 0.00 | 69 | 1015.6 |
| 20260503070112 | 2 | 217 | 0.0 | 0.0 | 0.00 | 0.00 | 0.00 | 69 | 1015.5 |
| 20260503060106 | 3 | 211 | 0.0 | 4.8 | 0.00 | 0.00 | 0.00 | 69 | 1015.8 |
| 20260503054543 | 3 | 171 | 0.0 | 0.0 | 0.00 | 0.00 | 0.00 | 69 | 1015.9 |
| 20260503053037 | 3 | 218 | 0.0 | 1.6 | 0.00 | 0.00 | 0.00 | 69 | 1016.0 |
| 20260503051534 | 3 | 212 | 0.0 | 0.0 | 0.00 | 0.00 | 0.00 | 69 | 1016.1 |
| 20260503050032 | 2 | 125 | 0.0 | 0.0 | 0.00 | 0.00 | 0.00 | 69 | 1016.3 |
| 20260503044535 | 2 | 284 | 0.0 | 1.6 | 0.00 | 0.00 | 0.00 | 68 | 1016.2 |
| 20260503043019 | 1 | 284 | 0.0 | 1.6 | 0.00 | 0.00 | 0.00 | 68 | 1016.2 |
| 20260503041515 | 1 | 284 | 0.0 | 0.0 | 0.00 | 0.00 | 0.00 | 68 | 1016.2 |
| 20260503040012 | 1 | 284 | 0.0 | 0.0 | 0.00 | 0.00 | 0.00 | 67 | 1016.3 |
| 20260503034508 | 1 | 284 | 0.0 | 0.0 | 0.00 | 0.00 | 0.00 | 67 | 1016.3 |
| 20260503033004 | 1 | 283 | 0.0 | 0.0 | 0.00 | 0.00 | 0.00 | 67 | 1016.4 |
| 20260503031503 | 2 | 284 | 0.0 | 0.0 | 0.00 | 0.00 | 0.00 | 67 | 1016.5 |
| 20260503030000 | 1 | 284 | 0.0 | 0.0 | 0.00 | 0.00 | 0.00 | 67 | 1016.5 |
| 20260503024600 | 1 | 284 | 0.0 | 0.0 | 0.00 | 0.00 | 0.00 | 66 | 1016.7 |
| 20260503023100 | 1 | 284 | 0.0 | 0.0 | 0.00 | 0.00 | 0.00 | 66 | 1016.9 |
| 20260503021554 | 2 | 283 | 0.0 | 0.0 | 0.00 | 0.00 | 0.00 | 66 | 1016.9 |
| 20260503020050 | 2 | 284 | 0.0 | 0.0 | 0.00 | 0.00 | 0.00 | 66 | 1016.7 |
| 20260503014545 | 2 | 284 | 0.0 | 0.0 | 0.00 | 0.00 | 0.00 | 66 | 1016.8 |
| 20260503013049 | 3 | 284 | 0.0 | 0.0 | 0.00 | 0.00 | 0.00 | 67 | 1016.8 |
| 20260503011538 | 4 | 284 | 0.0 | 0.0 | 0.00 | 0.00 | 0.00 | 67 | 1016.7 |
| 20260503010029 | 5 | 284 | 0.0 | 0.0 | 0.00 | 0.00 | 0.00 | 67 | 1016.7 |
| 20260503004527 | 6 | 284 | 0.0 | 1.6 | 0.00 | 0.03 | 0.00 | 68 | 1016.5 |
| 20260503003025 | 7 | 284 | 0.0 | 1.6 | 0.00 | 0.03 | 0.00 | 68 | 1016.5 |
| 20260503001524 | 8 | 262 | 0.0 | 3.2 | 0.00 | 0.03 | 0.00 | 69 | 1016.3 |
| 20260503000022 | 8 | 1 | 0.0 | 4.8 | 0.00 | 0.03 | 0.00 | 69 | 1016.4 |
| 20260502234522 | 8 | 236 | 0.0 | 4.8 | 0.00 | 0.03 | 0.00 | 69 | 1016.4 |
| 20260502233021 | 8 | 274 | 1.6 | 9.7 | 0.00 | 0.03 | 0.00 | 69 | 1016.5 |
| 20260502231520 | 8 | 276 | 1.6 | 8.0 | 0.00 | 0.03 | 0.00 | 69 | 1016.5 |
| 20260502230024 | 8 | 312 | 1.6 | 6.4 | 0.00 | 0.03 | 0.00 | 69 | 1016.5 |
| 20260502224518 | 8 | 323 | 3.2 | 6.4 | 0.00 | 0.03 | 0.00 | 69 | 1016.5 |
| 20260502223018 | 8 | 34 | 0.0 | 9.7 | 0.00 | 0.03 | 0.00 | 69 | 1016.5 |
| 20260502221517 | 8 | 333 | 1.6 | 9.7 | 0.00 | 0.03 | 0.00 | 69 | 1016.5 |
| 20260502220016 | 8 | 265 | 0.0 | 6.4 | 0.00 | 0.03 | 0.00 | 69 | 1016.6 |
| 20260502214524 | 8 | 333 | 3.2 | 11.3 | 0.00 | 0.03 | 0.00 | 69 | 1016.7 |
| 20260502213015 | 8 | 333 | 1.6 | 6.4 | 0.00 | 0.03 | 0.00 | 70 | 1016.6 |
| 20260502211525 | 8 | 264 | 3.2 | 11.3 | 0.00 | 0.03 | 0.00 | 70 | 1016.6 |
| 20260502210025 | 8 | 308 | 3.2 | 9.7 | 0.00 | 0.03 | 0.00 | 70 | 1016.7 |
| 20260502204513 | 8 | 328 | 4.8 | 9.7 | 0.00 | 0.03 | 0.00 | 70 | 1016.7 |
| 20260502203011 | 8 | 242 | 1.6 | 4.8 | 0.00 | 0.03 | 0.00 | 70 | 1016.8 |
| 20260502201512 | 8 | 278 | 1.6 | 9.7 | 0.00 | 0.03 | 0.00 | 70 | 1016.9 |
| 20260502200008 | 8 | 358 | 1.6 | 9.7 | 0.00 | 0.03 | 0.00 | 70 | 1017.2 |
| 20260502194506 | 8 | 309 | 1.6 | 8.0 | 0.00 | 0.03 | 0.00 | 70 | 1017.2 |